Location: T. Spence Memorial Observatory
(32.7356°N, 82.2098°W)
Time: 23:39:08
(UTC-04:00)

Daily predictions for brighter satellites

Satellite Brightness Start Highest point End
(mag) Time Altitude Azimuth Time Altitude Azimuth Time Altitude Azimuth
FENGYUN 3A 3.8 20:58:40 10° SSE 21:04:01 65° ENE 21:09:23 10° N
Cosmos 1980 Rocket 3.1 20:59:40 10° NNW 21:05:10 51° WSW 21:10:38 10° S
Cosmos 2360 Rocket 3.8 21:01:31 10° NNE 21:05:33 20° ENE 21:09:33 10° ESE
SL-16 R/B 2.4 21:02:53 10° NNW 21:08:27 56° ENE 21:14:00 10° SE
DELTA 2 R/B (1) 4.5 21:04:53 10° WNW 21:10:13 45° N 21:15:32 10° E
USA 186 0.7 21:12:44 10° SSE 21:14:56 79° ENE 21:17:12 10° N
OAO 2 Rocket 3.9 21:11:22 10° SW 21:16:20 42° SSE 21:21:21 10° E
GPS 2-04 Rocket1 3.5 21:12:24 10° W 21:16:36 46° SSW 21:20:46 10° SE
Cosmos 2266 Rocket 4.4 21:16:53 10° SSE 21:22:46 43° E 21:28:35 10° NNE
Cosmos 1151 Rocket 4.2 21:21:26 10° NNE 21:25:00 25° ENE 21:28:09 12° SE
Cosmos 1674 3.4 21:21:31 10° SSE 21:25:00 35° E 21:28:31 10° NNE
ALOS 2.7 21:22:34 10° S 21:27:11 66° W 21:31:50 10° NNW
Cosmos 371 Rocket 3.3 21:24:10 10° NNW 21:28:59 83° WSW 21:33:46 10° SSE
Cosmos 405 4.3 21:26:29 10° NNE 21:29:29 24° ENE 21:31:43 14° SE
Cosmos 1553 Rocket 4.0 21:25:03 10° N 21:31:27 76° E 21:37:43 10° S
H-2A R/B 3.3 21:31:29 10° SSW 21:34:10 26° SE 21:41:28 10° E
BREEZE-M DEB (TANK) 4.4 21:33:46 10° SSE 21:34:11 10° SSE 21:34:11 10° SSE
Cosmos 1538 Rocket 4.1 21:30:49 10° NNW 21:36:11 88° WSW 21:41:33 10° SSE
OTV 4 1.8 21:35:12 10° SSW 21:37:26 19° SSE 21:37:59 19° SE
Cosmos 1833 4.3 21:32:11 10° SSW 21:37:55 88° WNW 21:43:38 10° NNE
USA 229 DEB 4.4 21:31:27 10° SW 21:38:14 60° WNW 21:45:09 10° NNE
USA 229 4.4 21:31:32 10° SW 21:38:21 61° WNW 21:45:16 10° NNE
Tiangong 1 1.0 21:36:27 10° WSW 21:39:33 88° NNW 21:42:39 10° ENE
YAOGAN 11 4.2 21:39:25 10° S 21:43:41 75° WSW 21:48:03 10° NNW
Meteor 2-20 4.4 21:38:32 10° S 21:44:41 82° E 21:50:49 10° N
Hubble Space Telescope 2.5 21:42:38 10° SSW 21:45:02 15° SSE 21:45:05 15° SSE
H-2A R/B 4.2 21:43:28 10° SSW 21:47:01 35° W 21:50:33 10° NNW
Cosmos 1939 Rocket 3.0 21:45:33 16° SSE 21:48:30 55° ENE 21:52:19 10° N
H-2A R/B 2.3 21:45:08 15° SSE 21:48:51 62° ENE 21:53:20 10° N
CZ-4 DEB 4.2 21:47:02 10° SSW 21:50:01 36° W 21:53:01 10° NNW
ATLAS CENTAUR R/B 3.6 21:49:23 10° WNW 21:52:39 21° WSW 21:55:43 10° SSW
Cosmos 773 Rocket 4.0 21:47:49 10° NNW 21:53:02 75° ENE 21:57:03 17° SSE
Cosmos 1328 Rocket 4.3 21:50:12 10° NNW 21:54:33 55° W 21:58:51 10° S
Cosmos 1437 Rocket 2.6 21:51:08 10° N 21:54:58 88° E 21:57:56 16° S
SPOT 5 3.3 21:53:21 21° SE 21:56:01 42° ENE 22:00:29 10° N
NOSS 3-1 (A) 3.5 21:52:28 10° S 21:57:55 46° ESE 22:03:48 10° NE
COSMOS 2428 4.0 21:53:44 10° N 21:58:25 26° ENE 22:01:17 18° ESE
PSLV R/B 4.0 22:00:36 29° ESE 22:01:15 33° ENE 22:04:03 10° N
ARGOS 4.5 21:59:31 18° ESE 22:01:55 24° ENE 22:06:08 10° NNE
Cosmos 2219 Rocket 4.1 22:03:27 10° NNE 22:06:26 14° ENE 22:08:52 11° E
Cosmos 304 Rocket 3.9 22:02:10 10° N 22:06:56 61° ENE 22:09:26 27° SE
Nadezhda 2 Rocket 4.4 22:01:13 10° S 22:07:18 67° E 22:13:21 10° NNE
Cosmos 1437 3.5 22:14:41 13° SSW 22:17:26 51° W 22:20:39 10° N
Cosmos 1328 3.8 22:15:23 17° S 22:18:21 77° W 22:22:19 10° N
ATLAS 2AS CENTAUR R/B 3.7 22:18:20 25° SE 22:20:14 29° ESE 22:26:38 10° NE
Envisat 3.1 22:19:28 21° S 22:22:55 72° WSW 22:28:00 10° NNW
Cosmos 1726 3.2 22:20:06 10° NNE 22:23:24 29° ENE 22:23:24 29° ENE
ERS-1 Rocket 4.1 22:19:23 10° SSW 22:24:03 39° W 22:28:45 10° NNW
Cosmos 2219 3.6 22:20:58 10° SSW 22:26:40 65° WNW 22:32:23 10° NNE
Delta 2 Rocket 3.6 22:27:12 10° WNW 22:30:42 50° N 22:31:52 33° NE
BREEZE M DEB (TANK) 3.8 22:33:21 10° W 22:35:24 22° SSW 22:35:24 22° SSW
Cosmos 2237 Rocket 3.9 22:34:18 10° NNE 22:38:06 18° ENE 22:39:42 16° ENE
Cosmos 2082 4.3 22:38:00 34° ESE 22:38:12 34° ESE 22:43:18 10° NE
Cosmos 2151 4.5 22:35:27 10° SW 22:39:16 34° W 22:43:07 10° NNW
SL-23 DEB 4.2 22:35:49 10° NW 22:40:05 45° NE 22:40:32 42° ENE
Cosmos 2322 4.0 22:34:40 10° NNW 22:40:19 63° WSW 22:43:02 31° S
Cosmos 2322 Rocket 4.4 22:36:48 10° WNW 22:40:29 18° W 22:44:09 10° SW
Cosmos 1271 Rocket 4.0 22:37:12 10° NNE 22:40:05 28° ENE 22:40:05 28° ENE
Cosmos 1703 4.0 22:41:15 38° ENE 22:41:15 38° ENE 22:44:20 10° NNE
SL-14 R/B 3.1 22:40:06 58° S 22:40:51 87° E 22:44:50 10° N
Cosmos 2112 Rocket 4.1 22:36:06 10° NNW 22:41:20 76° WSW 22:43:24 38° S
Cosmos 1937 Rocket 3.4 22:41:24 41° SSE 22:43:03 63° ESE 22:48:12 10° NNE
Terra 3.2 22:43:25 23° ENE 22:43:42 23° ENE 22:47:22 10° NNE
NOSS 3-1 (C) 4.0 22:38:53 10° SW 22:44:31 55° NW 22:50:43 10° NNE
Cosmos 2298 Rocket 4.2 22:39:47 12° SSW 22:44:42 73° WNW 22:50:01 10° NNE
Meteor 1-4 Rocket 3.7 22:42:41 10° N 22:45:29 33° NE 22:45:29 33° NE
Cosmos 2242 Rocket 4.0 22:42:19 10° N 22:46:38 45° E 22:46:44 45° E
MetOp-B 4.3 22:44:55 34° S 22:47:17 71° WSW 22:52:38 10° NNW
Meteor 1-27 4.1 22:43:02 10° N 22:48:44 83° E 22:50:34 45° SSE
NOAA 11 4.2 22:47:20 46° SE 22:48:47 64° ENE 22:54:11 10° N
Cosmos 2360 Rocket 2.8 22:44:20 10° NNW 22:49:46 49° WSW 22:52:21 28° SSW
Sich 1 3.0 22:48:46 50° SSW 22:49:53 84° W 22:54:19 10° N
FALCON 9 R/B 4.3 22:19:26 10° W 22:53:34 84° N 23:00:29 14° E
Cosmos 1633 Rocket 3.0 22:52:39 55° SSW 22:53:35 81° W 22:57:58 10° N
Cosmos 990 Rocket 4.0 22:53:44 53° ESE 22:53:58 54° ESE 22:58:58 10° NNE
Cosmos 2058 4.2 22:52:03 20° SW 22:54:20 38° W 22:58:10 10° NNW
DELTA 2 R/B (1) 3.4 22:51:24 10° WNW 22:56:57 83° SSW 22:58:07 57° SE
DELTA 2 DEB (DPAF) 4.4 22:58:34 51° ENE 22:58:34 51° ENE 23:02:55 10° N
Cosmos 1626 4.0 23:01:02 21° NE 23:01:02 21° NE 23:02:40 10° NNE
OAO 2 Rocket 3.4 22:55:43 10° W 23:01:04 83° NNW 23:03:20 35° ENE
SL-08 RB Rocket 3.5 23:06:50 85° SSE 23:06:58 89° ENE 23:11:28 10° NNW
H-2A R/B 2.4 23:08:02 49° E 23:08:29 51° ENE 23:13:42 10° N
CZ-4 R/B 4.4 23:06:42 10° N 23:11:29 56° WNW 23:13:19 34° SW
Cosmos 2227 Rocket 2.0 23:11:30 63° S 23:12:22 76° ESE 23:18:02 10° NNE
YAOGAN 6 4.1 23:12:45 30° W 23:12:45 30° W 23:15:59 10° NW
Tiangong 1 3.8 23:14:09 10° WNW 23:16:26 19° NNW 23:17:13 17° N
Cosmos 1300 4.1 23:14:22 10° NNW 23:17:49 32° W 23:17:52 32° W
SPOT 1/Viking Rocket 4.2 23:19:48 40° SW 23:20:54 46° W 23:25:51 10° NNW
IGS 5A 4.4 23:29:10 43° NNE 23:29:10 43° NNE 23:32:11 10° N
Cosmos 2333 Rocket 2.3 23:25:27 10° NNW 23:31:09 60° ENE 23:31:18 59° ENE
SL-16 R/B 3.8 23:27:19 10° N 23:31:38 22° ENE 23:32:01 22° ENE
Cosmos 1125 Rocket 4.3 23:33:30 39° ENE 23:33:30 39° ENE 23:37:12 10° NNE
Cosmos 2297 Rocket 2.1 23:39:28 88° NNE 23:39:28 88° NNE 23:45:05 10° NNE
Cosmos 1455 3.8 23:36:41 10° N 23:38:49 32° N 23:38:49 32° N
Nadezhda 1 Rocket 3.8 23:35:38 10° N 23:41:44 81° W 23:42:17 73° SSW
ARGOS 4.2 23:41:02 34° WSW 23:41:54 36° W 23:46:50 10° NNW
COSMOS 2428 3.7 23:37:33 10° NW 23:42:40 36° WSW 23:43:18 35° WSW
Cosmos 2219 Rocket 2.3 23:45:18 10° NNW 23:50:35 66° W 23:50:35 66° W
